MDT,Max TemperatureF,Mean TemperatureF,Min TemperatureF,Max Dew PointF,MeanDew PointF,Min DewpointF,Max Humidity, Mean Humidity, Min Humidity, Max Sea Level PressureIn, Mean Sea Level PressureIn, Min Sea Level PressureIn, Max VisibilityMiles, Mean VisibilityMiles, Min VisibilityMiles, Max Wind SpeedMPH, Mean Wind SpeedMPH, Max Gust SpeedMPH,PrecipitationIn, CloudCover, Events, WindDirDegrees
2013-5-1,38,33,27,34,28,25,100,93,85,30.69,30.35,29.99,10,2,0,26,18,30,0.09,8,Fog-Rain-Snow,20
2013-5-2,46,35,23,27,22,15,92,62,31,30.79,30.65,30.46,10,10,9,21,10,24,T,4,,291
2013-5-3,60,44,27,30,23,18,75,48,21,30.45,30.22,30.07,10,10,10,17,9,22,0.00,0,,295
2013-5-4,58,43,27,25,19,15,72,46,20,30.24,30.16,30.10,10,10,10,22,8,31,0.00,0,,66
2013-5-5,59,43,27,28,21,15,63,43,23,30.23,30.17,30.08,10,10,10,16,6,18,0.00,1,,126
2013-5-6,72,54,35,40,28,22,71,46,20,30.08,29.96,29.85,10,10,10,26,13,36,0.00,0,,161
2013-5-7,70,54,37,50,43,37,100,69,37,29.90,29.86,29.81,10,10,4,23,8,28,0.18,4,Rain-Thunderstorm,126
2013-5-8,72,58,43,46,44,37,93,62,31,30.06,29.94,29.83,10,9,2,38,10,49,0.52,4,Rain-Thunderstorm,273
2013-5-9,62,53,44,45,42,38,92,67,42,30.15,30.07,29.97,10,10,6,25,9,30,T,4,Rain,23
2013-5-10,69,56,42,45,40,33,92,61,29,30.21,30.13,30.08,10,9,2,31,9,39,0.09,3,Rain,309
2013-5-11,65,55,44,44,38,32,83,60,37,30.37,30.27,30.16,10,10,4,15,9,18,T,3,,357
2013-5-12,79,64,48,44,37,30,80,49,18,30.15,30.05,29.97,10,10,10,21,12,28,0.00,1,,263
2013-5-13,85,69,53,43,38,30,59,37,14,30.01,29.94,29.84,10,10,10,20,11,22,0.00,0,,237
2013-5-14,90,75,60,45,39,30,48,31,14,30.00,29.80,29.72,10,10,10,24,13,32,0.00,1,,264
2013-5-15,80,68,56,49,44,40,67,46,25,29.94,29.79,29.72,10,10,10,26,9,31,T,1,,103
2013-5-16,83,67,51,52,46,35,93,56,18,29.83,29.73,29.65,10,10,10,25,7,31,T,2,Rain,228
2013-5-17,86,71,56,61,50,38,93,56,18,29.77,29.68,29.60,10,10,10,23,15,28,0.00,0,,166
2013-5-18,80,66,52,60,48,38,93,62,30,29.87,29.67,29.58,10,10,7,25,13,31,0.10,2,Rain-Thunderstorm,354
2013-5-19,58,53,48,49,45,41,86,74,62,29.82,29.74,29.66,10,9,2,23,13,28,0.14,4,Rain-Thunderstorm,317
2013-5-20,62,54,46,46,41,36,93,70,46,29.92,29.83,29.77,10,10,5,45,22,54,0.28,6,Rain,315
2013-5-21,68,55,42,39,34,25,76,48,20,29.95,29.88,29.79,10,10,10,33,22,41,0.00,1,,333
2013-5-22,71,55,39,44,41,35,86,62,37,30.05,29.90,29.84,10,10,10,25,9,30,T,0,,66
2013-5-23,62,53,44,52,46,44,100,80,60,30.18,30.10,29.99,10,6,0,31,13,39,0.02,8,Fog-Rain,116
2013-5-24,89,72,54,57,51,21,100,55,9,30.08,29.91,29.71,10,6,2,24,17,38,0.01,4,Rain,154
2013-5-25,87,70,53,57,52,38,93,56,18,30.02,29.83,29.69,10,7,0,23,9,28,0.00,1,Fog,137
2013-5-26,84,68,51,55,50,40,83,57,31,29.77,29.71,29.67,10,10,10,21,12,28,0.00,0,,19
2013-5-27,81,67,52,63,55,37,100,62,23,29.84,29.72,29.54,10,6,0,28,10,35,0.00,2,Fog-Thunderstorm,65
2013-5-28,82,64,46,58,45,38,86,54,21,29.71,29.59,29.43,10,10,10,35,11,44,T,1,Rain-Thunderstorm,147
2013-5-29,69,58,47,52,48,40,89,67,44,29.66,29.55,29.44,10,10,10,31,14,39,0.01,5,Rain-Thunderstorm,1
2013-5-30,73,59,44,41,31,21,83,49,15,29.73,29.61,29.55,10,10,10,32,12,40,0.00,1,,283
2013-5-31,74,58,41,38,27,17,66,40,13,29.92,29.78,29.72,10,10,10,35,16,44,0.00,1,,296